OBJECT N, 61906

Orbit data source: Space-Track

You're viewing an Uncataloged Satellite

Recently launched and/or uncataloged satellites may have evolving metadata. Metadata may include but not limited to: Owner, Maufacturer, Bus, Motor, and Mission.

OBJECT N, 61906 is a Chinese satellite in SSO that was launched on Mon, 11 Nov 2024 UTC via a LIJIAN-1 launch vehicle from the Jiuquan Satellite Launch Center, China (JSC). Unknown objects in Earth's orbit typically refer to objects detected orbiting the Earth but have not yet been identified or cataloged. These objects could be anything from previously untracked satellites, spent rocket stages, debris from satellite collisions, or even natural meteoroids temporarily captured by Earth's gravity.

Loading next visibility...
Identifier
61906, 2024-205N
Orbit
SSO
Country
Flag of CNCN / PRC
Related business
None
Manufacturer
Unknown
Mission
Operational Commercial Imaging
Bus & Motor
Unknown
Mass
Unknown
Launch date (UTC)
2024-11-11 (1 year ago)
Launch vehicle
LIJIAN-1
Launch site
Jiuquan Satellite Launch Center, China (JSC)
Object type
Unknown
Shape & HBR
Box, 0.1 m
Radar Cross Section
0.035 m², Medium (>0.1 m² and < 1m²)

Expand to show TLE details & history
Last TLE update: 4 hours ago

TLE from 4 hours ago
0 OBJECT N
1 61906U 24205N   26120.18003307  .00022846  00000-0  65147-3 0  9996
2 61906  97.4174 200.4866 0009175 196.1352 163.9601 15.36029678 81508
Epoch: 2026-04-30T04:19Z
TLE epoch observation values (Epoch: 2026-04-30T04:19:14.857Z)
Latitude
-0°
Longitude
-82.45565°
Altitude
467.005 km
Speed
7.629 km/s
True Right ascension
13h 21m 56s
True Declination
0° 00' 00"
Sunlit
Object was in full shadow at epoch
Visualization orbit readout
Latitude
Unknown
Longitude
Unknown
Altitude
Unknown
Speed
Unknown
Apparent Right ascension
Unknown
Apparent Declination
Unknown
Sunlit
N/A
Visualization observer readout
Local Sidereal Time
15:39:01
Azimuth
Unknown
Elevation
Unknown
Doppler factor
Unknown
Orbital elements
Apogee altitude
461.078 km
Perigee altitude
448.54 km
Semi-major axis
6,832.946 km
Eccentricity
0.00092
Inclination
97.4174°
RAAN
200.4866°
Arg. of periapsis
196.1352°
True anomaly
163.98912°
Mean anomaly
163.9601°
Eccentric anomaly
163.97461°
Mean motion
3.84265 °/min
Orbital period
93.69 mins
BSTAR
0.00065147
Loading maneuver chart data...
Computing Atmospheric mass density...
Loading historical data...
Loading historical data...
Loading historical data...
Loading historical data...
Loading historical data...
Loading historical data...
Loading historical data...

Documentation

Showing up to 5 results
|